Weather History for LIEE - March, 2013

Change the Weather History Date:

Thursday, March 7, 2013

  Actual Average Record
Temperature  
Mean Temperature 62 °F -  
Max Temperature 70 °F 62 °F 70 °F (2013)
Min Temperature 53 °F 46 °F 35 °F (2005)
Degree Days  
Heating Degree Days 4    
Growing Degree Days 12 (Base 50)    
Moisture  
Dew Point 53 °F    
Average Humidity 75    
Maximum Humidity 88    
Minimum Humidity 52    
Precipitation  
Precipitation 0.00 in 0.06 in - ()
Sea Level Pressure  
Sea Level Pressure 29.72 in    
Wind  
Wind Speed 6 mph ()    
Max Wind Speed 15 mph    
Max Gust Speed -    
Visibility 6.2 miles    
Events Rain    
Averages and records for this station are not official NWS values.
T = Trace of Precipitation, MM = Missing Value Source: Averaged Metar Reports

Daily Weather History Graph

Daily Weather History Graph

Search for Another Location

Airport or City:

Trip Planner

Search our weather history database for the weather conditions in past years. The results will help you decide how hot, cold, wet, or windy it might be!

Date:

Astronomy

Mar. 07, 2013 Rise Set
Actual Time 6:47 AM CET 6:22 PM CET
Civil Twilight 6:20 AM CET 6:49 PM CET
Nautical Twilight 5:49 AM CET 7:20 PM CET
Astronomical Twilight 5:18 AM CET 7:51 PM CET
Moon 3:32 AM CET (3/7) 1:53 PM CET (3/7)
Length of Visible Light 12h 28m
Length of Day
11h 35m
Waning Crescent, 22% of the Moon is Illuminated
Mar 7
Waning Crescent
Mar 11
New
Mar 19
First Quarter
Mar 27
Full
Apr 3
Last Quarter

Hourly Weather History & Observations

Time (CET) Temp. Dew Point Humidity Pressure Visibility Wind Dir Wind Speed Gust Speed Precip Events Conditions
12:15 AM - - N/A% 29.71 in 5.0 mi SSE 9.2 mph - N/A Rain Light Rain
12:45 AM - - N/A% 29.71 in 5.0 mi SSE 11.5 mph - N/A Rain Light Rain
12:55 AM 57.2 °F 53.6 °F 88% 29.71 in 5.0 mi SSE 11.5 mph - N/A Rain Light Rain
1:00 AM 57 °F 54 °F 85% 29.71 in 5 mi SSE 11.5 mph - - Rain Light Rain
1:15 AM - - N/A% 29.71 in 5.0 mi SSE 13.8 mph - N/A Rain Light Rain
1:45 AM - - N/A% 29.68 in 5.0 mi South 11.5 mph - N/A Rain Light Rain
1:55 AM 57.2 °F 53.6 °F 88% 29.68 in 5.0 mi South 11.5 mph - N/A Rain Light Rain
2:15 AM - - N/A% 29.68 in 5.0 mi SSE 11.5 mph - N/A Rain Light Rain
2:45 AM - - N/A% 29.68 in 5.0 mi South 3.5 mph - N/A Rain Light Rain
2:55 AM 57.2 °F 53.6 °F 88% 29.68 in 5.0 mi South 3.5 mph - N/A Rain Light Rain
3:15 AM - - N/A% 29.68 in 5.0 mi SSW 2.3 mph - N/A Rain Light Rain
3:45 AM 57.2 °F 53.6 °F 88% 29.68 in 6.2 mi WNW 4.6 mph - N/A   Mostly Cloudy
3:55 AM 57.2 °F 53.6 °F 88% 29.68 in 6.2 mi WNW 4.6 mph - N/A   Mostly Cloudy
4:00 AM 57 °F 54 °F 85% 29.69 in 6 mi WNW 4.6 mph - - Rain Light Rain
4:15 AM 57.2 °F 53.6 °F 88% 29.68 in 6.2 mi West 5.8 mph - N/A   Mostly Cloudy
4:45 AM 57.2 °F 51.8 °F 82% 29.68 in 6.2 mi North 2.3 mph - N/A   Mostly Cloudy
4:55 AM 57.2 °F 51.8 °F 82% 29.68 in 6.2 mi North 2.3 mph - N/A   Mostly Cloudy
5:15 AM 57.2 °F 51.8 °F 82% 29.68 in 6.2 mi WNW 4.6 mph - N/A   Mostly Cloudy
5:45 AM 57.2 °F 51.8 °F 82% 29.68 in 6.2 mi West 2.3 mph - N/A   Mostly Cloudy
5:55 AM 57.2 °F 51.8 °F 82% 29.68 in 6.2 mi West 2.3 mph - N/A   Mostly Cloudy
6:15 AM 57.2 °F 51.8 °F 82% 29.68 in 6.2 mi West 2.3 mph - N/A   Mostly Cloudy
6:45 AM 57.2 °F 51.8 °F 82% 29.68 in 6.2 mi ENE 2.3 mph - N/A   Scattered Clouds
6:55 AM 57.2 °F 51.8 °F 82% 29.68 in 6.2 mi ENE 2.3 mph - N/A   Scattered Clouds
7:15 AM 55.4 °F 51.8 °F 88% 29.68 in 6.2 mi NE 3.5 mph - N/A   Scattered Clouds
7:45 AM 55.4 °F 51.8 °F 88% 29.71 in 6.2 mi NE 3.5 mph - N/A   Scattered Clouds
7:55 AM 55.4 °F 51.8 °F 88% 29.71 in 6.2 mi NE 3.5 mph - N/A   Scattered Clouds
8:15 AM 59.0 °F 53.6 °F 82% 29.71 in 6.2 mi NE 2.3 mph - N/A   Scattered Clouds
8:45 AM 60.8 °F 55.4 °F 82% 29.71 in 6.2 mi ENE 2.3 mph - N/A   Scattered Clouds
8:55 AM 60.8 °F 55.4 °F 82% 29.71 in 6.2 mi ENE 2.3 mph - N/A   Scattered Clouds
9:15 AM 62.6 °F 59.0 °F 88% 29.71 in 6.2 mi ENE 8.1 mph - N/A   Partly Cloudy
9:45 AM 64.4 °F 57.2 °F 77% 29.71 in 6.2 mi ESE 3.5 mph - N/A   Partly Cloudy
9:55 AM 64.4 °F 57.2 °F 77% 29.71 in 6.2 mi ESE 3.5 mph - N/A   Partly Cloudy
10:00 AM 65 °F 57 °F 68% 29.73 in 6 mi ESE 3.5 mph - -   Scattered Clouds
10:15 AM 66.2 °F 59.0 °F 78% 29.71 in 6.2 mi East 1.2 mph - N/A   Partly Cloudy
10:45 AM 68.0 °F 57.2 °F 68% 29.71 in 6.2 mi Calm Calm - N/A   Partly Cloudy
10:55 AM 68.0 °F 57.2 °F 68% 29.71 in 6.2 mi Calm Calm - N/A   Partly Cloudy
11:15 AM 68.0 °F 57.2 °F 68% 29.71 in 6.2 mi SE 2.3 mph - N/A   Partly Cloudy
11:45 AM 69.8 °F 57.2 °F 64% 29.71 in 6.2 mi SSW 3.5 mph - N/A   Partly Cloudy
11:55 AM 69.8 °F 57.2 °F 64% 29.71 in 6.2 mi SSW 3.5 mph - N/A   Partly Cloudy
12:15 PM 69.8 °F 55.4 °F 60% 29.71 in 6.2 mi SE 2.3 mph - N/A   Scattered Clouds
12:45 PM 69.8 °F 55.4 °F 60% 29.71 in 6.2 mi SSE 4.6 mph - N/A   Scattered Clouds
12:55 PM 69.8 °F 55.4 °F 60% 29.71 in 6.2 mi SSE 4.6 mph - N/A   Scattered Clouds
1:00 PM 70 °F 56 °F 52% 29.73 in 9 mi SSE 4.6 mph - -   Partly Cloudy
1:15 PM 69.8 °F 57.2 °F 64% 29.71 in 6.2 mi WNW 2.3 mph - N/A   Scattered Clouds
1:45 PM 69.8 °F 53.6 °F 56% 29.71 in 6.2 mi West 9.2 mph - N/A   Scattered Clouds
1:55 PM 69.8 °F 53.6 °F 56% 29.71 in 6.2 mi West 9.2 mph - N/A   Scattered Clouds
2:15 PM 66.2 °F 55.4 °F 68% 29.71 in 6.2 mi WNW 13.8 mph - N/A   Scattered Clouds
2:45 PM 66.2 °F 53.6 °F 64% 29.71 in 6.2 mi West 15.0 mph - N/A   Partly Cloudy
2:55 PM 66.2 °F 53.6 °F 64% 29.71 in 6.2 mi West 15.0 mph - N/A   Partly Cloudy
3:15 PM 66.2 °F 55.4 °F 68% 29.71 in 6.2 mi West 10.4 mph - N/A   Partly Cloudy
3:45 PM 66.2 °F 55.4 °F 68% 29.71 in 6.2 mi West 10.4 mph - N/A   Partly Cloudy
3:55 PM 66.2 °F 55.4 °F 68% 29.71 in 6.2 mi West 10.4 mph - N/A   Partly Cloudy
4:00 PM 67 °F 55 °F 57% 29.73 in 9 mi West 10.4 mph - -   Scattered Clouds
4:15 PM 66.2 °F 55.4 °F 68% 29.71 in 6.2 mi West 11.5 mph - N/A   Partly Cloudy
4:45 PM 66.2 °F 53.6 °F 64% 29.74 in 6.2 mi West 13.8 mph - N/A   Partly Cloudy
4:55 PM 66.2 °F 53.6 °F 64% 29.74 in 6.2 mi West 13.8 mph - N/A   Partly Cloudy
5:15 PM 64.4 °F 53.6 °F 68% 29.74 in 6.2 mi West 10.4 mph - N/A   Partly Cloudy
5:45 PM 64.4 °F 53.6 °F 68% 29.74 in 6.2 mi West 10.4 mph - N/A   Partly Cloudy
5:55 PM 64.4 °F 53.6 °F 68% 29.74 in 6.2 mi West 10.4 mph - N/A   Partly Cloudy
6:15 PM 62.6 °F 51.8 °F 68% 29.77 in 6.2 mi West 10.4 mph - N/A   Partly Cloudy
6:45 PM 60.8 °F 51.8 °F 72% 29.77 in 6.2 mi WNW 5.8 mph - N/A   Partly Cloudy
6:55 PM 60.8 °F 51.8 °F 72% 29.77 in 6.2 mi WNW 5.8 mph - N/A   Partly Cloudy
7:00 PM 60 °F 53 °F 70% 29.78 in 9 mi WNW 5.8 mph - -   Scattered Clouds
7:15 PM 59.0 °F 51.8 °F 77% 29.77 in 6.2 mi WNW 4.6 mph - N/A   Partly Cloudy
7:45 PM 57.2 °F 50.0 °F 77% 29.77 in 6.2 mi NW 5.8 mph - N/A   Partly Cloudy
7:55 PM 57.2 °F 50.0 °F 77% 29.77 in 6.2 mi NW 5.8 mph - N/A   Partly Cloudy
8:15 PM 57.2 °F 51.8 °F 82% 29.77 in 6.2 mi NNW 5.8 mph - N/A   Partly Cloudy
8:45 PM 57.2 °F 51.8 °F 82% 29.77 in 6.2 mi NNW 8.1 mph - N/A   Partly Cloudy
8:55 PM 57.2 °F 51.8 °F 82% 29.77 in 6.2 mi NNW 8.1 mph - N/A   Partly Cloudy
9:15 PM 55.4 °F 48.2 °F 77% 29.80 in 6.2 mi NNE 2.3 mph - N/A   Partly Cloudy
9:45 PM 55.4 °F 48.2 °F 77% 29.80 in 6.2 mi NNE 3.5 mph - N/A   Partly Cloudy
9:55 PM 55.4 °F 48.2 °F 77% 29.80 in 6.2 mi NNE 3.5 mph - N/A   Partly Cloudy
10:00 PM 55 °F 49 °F 74% 29.81 in 9 mi NNE 3.5 mph - -   Scattered Clouds
10:15 PM 55.4 °F 48.2 °F 77% 29.80 in 6.2 mi NNE 2.3 mph - N/A   Partly Cloudy
10:45 PM 53.6 °F 48.2 °F 82% 29.80 in 6.2 mi ENE 5.8 mph - N/A   Partly Cloudy
10:55 PM 53.6 °F 48.2 °F 82% 29.80 in 6.2 mi ENE 5.8 mph - N/A   Partly Cloudy
11:15 PM 53.6 °F 48.2 °F 82% 29.77 in 6.2 mi NNE 4.6 mph - N/A   Partly Cloudy
11:45 PM 53.6 °F 46.4 °F 77% 29.80 in 6.2 mi Calm Calm - N/A   Partly Cloudy
11:55 PM 53.6 °F 46.4 °F 77% 29.80 in 6.2 mi Calm Calm - N/A   Partly Cloudy